Погода в Мостах

Беларусь     53°24′48″N   24°32′34″E
темп.,
°C
ветер,
м/с
пор.,
м/с
влажн.,
%
обл.,
%
осадки,
мм/ч
давл.,
гПа
погр.,
м
10 апреля, сб
сб1000:00+5ю6135779 0.0 1017454
03:00+4ю61368100 0.0 1017370
06:00+4ююз51271100 0.0 1016303
09:00+6ююз6126548 0.0 1016461
12:00+11ююз79528 0.0 1016943
15:00+14юз7104589 0.0 10162029
18:00+12з3663100 0.2 1017185
21:00+9с2272100 0.3 101834
11 апреля, вс
вс1100:00+8всв3487100 0.5 1019106
03:00+8в2387100 0.7 102055
06:00+8ююв3585100 0.0 1020110
09:00+9ю3579100 0.0 1021194
12:00+14ю5660100 0.0 1022746
15:00+16ю7947100 0.0 10221351
18:00+16ююв7104995 0.0 10211299
21:00+11юв61460100 0.0 1022332
12 апреля, пн
пн1200:00+10ююв6155893 0.0 1023401
03:00+9ююв61459100 0.0 1022396
06:00+7юв61561100 0.0 1022358
09:00+8ююв71458100 0.0 1021515
12:00+12ююв81046100 0.0 1020827
15:00+14ююв7947100 0.0 10191042
18:00+12ююв5961100 0.1 1018484
21:00+10юв3975100 0.5 1018293
13 апреля, вт
вт1300:00+9юв2786100 0.7 1018214
03:00+9юв2490100 1.7 1018139
06:00+8сз2497100 0.8 1018210
09:00+6ссз5690100 0.8 1019346
12:00+6ссз6787100 0.0 1020454
15:00+6ссз6682100 0.0 1021578
18:00+4с61091100 0.9 1021528
21:00+3с61296100 4.1 1021505
14 апреля, ср
ср1400:00+3с61197100 2.6 1021517
03:00+3с61297100 6.1 1020535
06:00+2ссв71397100 2.4 1019506
09:00+2ссв71397100 4.6 1019523
12:00+3ссв71193100 0.8 1019583
15:00+4ссв71291100 0.8 1018627
18:00+3ссв81492100 0.0 1018508
21:00+2с71396100 2.6 1015429